Grand Canyon National Park Airport
KGCN : now visible

Airfield :











YOU CAN JOIN US ON...

 
LOGIN :

Register | Disclaimer

   EN    FR    IT 

 









Legend :    VFR   Marginal VFR   IFR   Intensive IFR   Very Intensive IFR
Visi :
Ceiling :
>= 8 km
>= 3000ft
5 to 8 km
1000 to 3000 ft
1500m to 5 km
500 to 1000 ft
800 to 1500m
200 to 500 ft
< 800m
< 200 ft
Symbols :   Thunderstorms  Fog  Heavy snow  Heavy precipitations  Wind > 20 kt






- Airport Elevation : 6609 ft
- IATA code : GCN


KGCN - Grand Canyon National Park

CURRENT METAR :
  • 211754Z 26009KT 10SM FEW025 SCT090 BKN110 23/04 A3035 RMK AO2 RAB35E50 SLP179 P0000 60000 T02280039 10244 20039 51007

EXPIRED METARs :
  • 211654Z VRB03KT 10SM FEW090 24/02 A3034 RMK AO2 SLP179 T02390017
  • 211554Z 00000KT 10SM BKN095 BKN110 20/02 A3034 RMK AO2 SLP194 T02000022

TAF KGCN
Valid from the 21 at 18:00 until the 22 at 18:00 UTC


211720Z 2118/2218 22008KT P6SM VCSH BKN090
FM220300 VRB05KT P6SM SCT090
KZLA FIR / North America



MET'MAP, your aeronautical weather chart ! - Copyright ORBIFLY December 2007 - Disclaimer

ORBIFLY MET'MAP TEAM :

Programming & Development : Alexandra Zaïnal
Concept & original design : Baudouin d'Aumeries
Assistance for programming : Marc-Olivier Méhu
Technical & hardware support : Manuel Goepfert

Contact : metmap@orbifly.com




SOURCES & CREDITS :

   NOAA       Earth
Advisory